Regional Weather Roundup
Issued by NWS

Home | Current Version | Previous Version | Text Only | Print | Product List | Glossary Off
Versions: 1 2 3 4 5 6 7 8 9 10 11 12 13 14 15 16 17 18 19 20 21 22 23 24 25 26 27 28 29 30 31 32 33 34 35 36 37 38 39 40 41 42 43 44 45 46 47 48 49 50

000
ASUS43 KMKX 292200
RWRWI

WISCONSIN REGIONAL WEATHER ROUNDUP
NATIONAL WEATHER SERVICE MILWAUKEE/SULLIVAN WI
500 PM CDT MON JUN 29 2015

NOTE: "FAIR" INDICATES FEW OR NO CLOUDS BELOW 12,000 FEET WITH NO
SIGNIFICANT WEATHER AND/OR OBSTRUCTIONS TO VISIBILITY.

WIZ001-002-006>008-014>016-023>028-292300-
NORTHWEST WISCONSIN

CITY           SKY/WX    TMP DP  RH WIND       PRES   REMARKS
SUPERIOR ARPT  MOSUNNY   73  63  70 SW8       29.76S
ASHLAND        PTSUNNY   74  65  73 N5        29.76F
HAYWARD        CLOUDY    66  59  78 CALM      29.79S
SIREN          LGT RAIN  60  57  92 S3        29.78F
CUMBERLAND     CLOUDY    61  57  88 E5        29.80F
RICE LAKE      CLOUDY    63  59  88 E12       29.81F
CHETEK         LGT RAIN  62  59  89 E8        29.82R
LADYSMITH      CLOUDY    65  59  81 SW7       29.83R
EAU CLAIRE     TSTM      60  58  92 NW5       29.85R FOG
MENOMONIE      CLOUDY    67  57  70 N18       29.83R
NEW RICHMOND   MOSUNNY   79  63  56 N9        29.80R HX  81
OSCEOLA        MOSUNNY   80  63  56 N8        29.80S HX  81
$$

WIZ003>005-009-010-017-018-292300-
NORTH CENTRAL WISCONSIN

CITY           SKY/WX    TMP DP  RH WIND       PRES   REMARKS
MANITOWISH WTR CLOUDY    62  62 100 W5        29.78S
ARBOR VITAE    CLOUDY    62  59  91 NW8       29.77F
WOODRUFF       CLOUDY    62  59  91 NW8       29.77F
RHINELANDER    CLOUDY    63  59  87 CALM      29.77F
EAGLE RIVER    CLOUDY    65  55  68 N3        29.75F
LAND O LAKES   CLOUDY    62  59  91 CALM      29.76F
PHILLIPS       CLOUDY    62  59  91 CALM      29.78F
TOMAHAWK       LGT RAIN  60  58  94 CALM      29.79S
MEDFORD        LGT RAIN  59  57  94 SW8       29.80F
MERRILL        CLOUDY    62  60  94 CALM      29.80F
$$

WIZ029-030-035-036-043>047-292300-
CENTRAL WISCONSIN

CITY           SKY/WX    TMP DP  RH WIND       PRES   REMARKS
WAUSAU         TSTM      63  59  87 NW12      29.78R
MOSINEE        LGT RAIN  61  59  94 W7        29.82R
MARSHFIELD     LGT RAIN  64  55  72 N12G20    29.81F
STEVENS POINT  PTSUNNY   74  58  56 W9        29.78R
WAUPACA        PTSUNNY   73  67  80 S12       29.78S
WAUTOMA        NOT AVBL
WISC RAPIDS    PTSUNNY   69  54  58 N20G25    29.83R
CAMP DOUGLAS   NOT AVBL
$$

WIZ011>013-019>022-031-037>040-048>050-292300-
NORTHEAST WISCONSIN

CITY           SKY/WX    TMP DP  RH WIND       PRES   REMARKS
ANTIGO         CLOUDY    69  63  81 SE9       29.77S
SHAWANO        CLOUDY    69  65  85 S7        29.77F
OCONTO         CLOUDY    75  60  58 S7        29.74F
STURGEON BAY   MOSUNNY   73  55  53 S16       29.78F
GREEN BAY      TSTM      69  64  84 S7        29.78R VSB 1
MANITOWOC      NOT AVBL
APPLETON       PTSUNNY   72  57  60 SW7       29.78S
CLINTONVILLE   CLOUDY   N/A N/A N/A SE12      29.77S
OSHKOSH        MOSUNNY   74  61  63 SW7       29.77S
$$

WIZ032>034-041-042-053>061-292300-
SOUTHWEST WISCONSIN

CITY           SKY/WX    TMP DP  RH WIND       PRES   REMARKS
LA CROSSE      TSTM      77  64  64 NE6       29.77S
SPARTA         PTSUNNY   77  59  53 NW3       29.79R
VIROQUA        PTSUNNY   78  61  56 NW6       29.81S
BOSCOBEL       MOSUNNY   83  63  50 NW8       29.78S HX  84
PRAIRIE DU CHI MOSUNNY   78  61  55 W8        29.78S HX  80
PLATTEVILLE    MOSUNNY   79  62  54 NW9       29.80S HX  80
$$

WIZ056-057-062-063-064-067-068-292300-
SOUTH CENTRAL WISCONSIN

CITY           SKY/WX    TMP DP  RH WIND       PRES   REMARKS
REEDSBURG      PTSUNNY   76  62  61 N7        29.77F
BARABOO/DELLS  SUNNY     78  59  50 W9        29.78S HX  80
LONE ROCK      NOT AVBL
MINERAL POINT  SUNNY     79  63  57 NW6       29.80S HX  80
MADISON        PTSUNNY   73  63  70 SE7       29.78S
MIDDLETON      MOSUNNY   78  58  51 N5        29.79R
WATERTOWN      SUNNY     72  63  73 S5        29.78S
MONROE         MOSUNNY   79  61  53 W9        29.79S HX  80
JANESVILLE     MOSUNNY   70  64  83 CALM      29.79F
$$

WIZ051-052-058>065-066-070>072-292300-
SOUTHEAST WISCONSIN

CITY           SKY/WX    TMP DP  RH WIND       PRES   REMARKS
MILWAUKEE      PTSUNNY   70  61  73 SE10      29.80S
WAUKESHA       MOSUNNY   70  61  73 S6        29.81S
MILWAUKEE/TIMM PTSUNNY   73  55  53 S7        29.80S
RACINE         PTSUNNY   68  61  78 S8        29.82S
BURLINGTON     PTSUNNY   71  62  73 S3        29.80S
KENOSHA        CLOUDY    69  62  78 SE9       29.80S
FOND DU LAC    MOSUNNY   74  63  68 SW7       29.78S
SHEBOYGAN      SUNNY     74  60  61 S9        29.79S
WEST BEND      RAIN      72  55  56 E5        29.79R
JUNEAU         SUNNY     73  63  69 S6        29.80S
$$

LSZ147-162-292300-
LAKE SUPERIOR

STATION/POSITION TIME  TEMP    WIND        PRES    WAVE
                       AIR SEA DIR/SP/G            HT/PER
                 (UTC) (F)     (DEG/KT/KT) (MB)    (FT/S)
W MID LAKE BUOY  2050   47 39  270/  4/  6 1007.6R   0
DEVILS ISLAND    2100   66     210/  3/  5 1007.7R
SAXON HARBOR     2140   68      CALM  /  4 1007.5S
$$

LMZ867-665-643>646-292300-
LAKE MICHIGAN

STATION/POSITION TIME  TEMP    WIND        PRES    WAVE
                       AIR SEA DIR/SP/G            HT/PER
                 (UTC) (F)     (DEG/KT/KT) (MB)    (FT/S)
CHAMBERS ISLAND  2100   75     190/  5/ 12 1007.8S
S GREEN BAY BUOY 2100   75 72  180/ 10/ 12 1009.2F
N MID LAKE BUOY  2050   58 51  230/  8/  8 1008.3F   1
NORTHPORT PIER   2100   73     160/  6/ 11 1008.1S
ALGOMA LAKESHORE 2110          200/  7/  8   N/A
KEWAUNEE LAKESHO 2100   64     180/  7/  9 1008.0F
SHEBOYGAN LAKESH 2100   61     160/ 10/ 11 1009.0F
PORT WASHINGTON  2100   67     160/  6/  7 1009.5F
ATWATER BUOY     2100   62 62  140/  8/ 10 1010.3F
MILWAUKEE LAKESH 2100   61     130/  8/  9   N/A
KENOSHA   LAKESH 2100   65     140/  6/  7 1009.1F
$$

TC  - TEMPERATURE IN CELSIUS
VSB - VISIBILITY IN STATUTE MILES
WCI - WIND CHILL INDEX
HX  - HEAT INDEX




USA.gov is the U.S. government's official web portal to all federal, state and local government web resources and services.